Location: Kershaw
(34.5481°N, 80.5823°W)
Time: 04:03:02
(UTC+00:00)

Tiros 1 despin weight - Pass Details

Date: 06 October 2022
Orbit: 590 x 637 km, 48.2° (Epoch: 30 November)

Event Time Altitude Azimuth Distance (km) Brightness Sun altitude
Rises 22:28:25 0° 300° (WNW) 2,852 ? 5.5°
Reaches altitude 10° 22:31:44 10° 326° (NW) 1,960 ? 4.8°
Maximum altitude 22:34:09 14° 359° (N) 1,711 ? 4.3°
Drops below altitude 10° 22:36:35 10° 31° (NNE) 1,978 ? 3.8°
Sets 22:39:58 0° 57° (ENE) 2,896 ? 3.2°
